| time (UTC) | temp F | wind direction | speed MPH | gust MPH | rain 1hr in | rain 24hr in | rain mn in | humidity % | barometer mb |
| 20260506044731 | 39 | 283 | 9.0 | 15.0 | 0.00 | 0.00 | 0.00 | 65 | 1003.9 |
| 20260506041731 | 38 | 214 | 7.0 | 13.0 | 0.00 | 0.00 | 0.00 | 67 | 1003.8 |
| 20260506034723 | 38 | 269 | 3.0 | 15.0 | 0.00 | 0.00 | 0.00 | 68 | 1003.3 |
| 20260506031723 | 37 | 253 | 3.0 | 13.0 | 0.00 | 0.00 | 0.00 | 70 | 1003.2 |
| 20260506024729 | 37 | 285 | 2.0 | 12.0 | 0.00 | 0.00 | 0.00 | 71 | 1002.9 |
| 20260506021740 | 37 | 274 | 4.0 | 14.0 | 0.00 | 0.00 | 0.00 | 71 | 1002.7 |
| 20260506014727 | 37 | 286 | 1.0 | 10.0 | 0.00 | 0.00 | 0.00 | 70 | 1002.6 |
| 20260506011736 | 38 | 255 | 4.0 | 13.0 | 0.00 | 0.00 | 0.00 | 69 | 1002.2 |
| 20260506004727 | 38 | 271 | 7.0 | 13.0 | 0.00 | 0.00 | 0.00 | 68 | 1002.1 |
| 20260506001726 | 39 | 245 | 6.0 | 14.0 | 0.00 | 0.00 | 0.00 | 66 | 1001.7 |
| 20260505234723 | 39 | 285 | 6.0 | 12.0 | 0.00 | 0.00 | 0.00 | 66 | 1001.7 |
| 20260505231733 | 39 | 300 | 2.0 | 10.0 | 0.00 | 0.00 | 0.00 | 66 | 1001.5 |
| 20260505224723 | 39 | 259 | 4.0 | 13.0 | 0.00 | 0.00 | 0.00 | 65 | 1001.4 |
| 20260505221733 | 40 | 267 | 2.0 | 12.0 | 0.00 | 0.00 | 0.00 | 63 | 1001.3 |
| 20260505214725 | 40 | 271 | 1.0 | 9.0 | 0.00 | 0.00 | 0.00 | 64 | 1001.2 |
| 20260505211734 | 40 | 251 | 3.0 | 8.0 | 0.00 | 0.00 | 0.00 | 63 | 1001.2 |
| 20260505204738 | 39 | 269 | 0.0 | 7.0 | 0.00 | 0.04 | 0.00 | 67 | 1000.9 |
| 20260505201729 | 40 | 238 | 0.0 | 3.0 | 0.00 | 0.04 | 0.00 | 71 | 1000.7 |
| 20260505194730 | 41 | 236 | 1.0 | 4.0 | 0.00 | 0.13 | 0.00 | 68 | 1000.7 |
| 20260505191725 | 42 | 282 | 3.0 | 6.0 | 0.00 | 0.13 | 0.00 | 64 | 1000.6 |
| 20260505184735 | 43 | 263 | 2.0 | 9.0 | 0.00 | 0.20 | 0.00 | 60 | 1000.5 |
| 20260505181725 | 44 | 267 | 4.0 | 11.0 | 0.00 | 0.20 | 0.00 | 53 | 1000.1 |
| 20260505174727 | 45 | 250 | 3.0 | 9.0 | 0.00 | 0.20 | 0.00 | 50 | 1000.0 |
| 20260505171734 | 44 | 257 | 4.0 | 11.0 | 0.00 | 0.20 | 0.00 | 54 | 999.9 |
| 20260505164721 | 45 | 241 | 6.0 | 13.0 | 0.00 | 0.20 | 0.00 | 49 | 999.6 |
| 20260505161738 | 47 | 226 | 5.0 | 14.0 | 0.00 | 0.20 | 0.00 | 43 | 999.5 |
| 20260505151727 | 48 | 236 | 6.0 | 22.0 | 0.00 | 0.20 | 0.00 | 42 | 999.2 |
| 20260505124725 | 48 | 257 | 5.0 | 15.0 | 0.00 | 0.20 | 0.00 | 37 | 998.6 |
| 20260505121723 | 47 | 291 | 6.0 | 19.0 | 0.00 | 0.20 | 0.00 | 41 | 998.4 |
| 20260505114724 | 46 | 275 | 11.0 | 19.0 | 0.00 | 0.20 | 0.00 | 45 | 998.2 |
| 20260505111722 | 45 | 281 | 9.0 | 22.0 | 0.00 | 0.20 | 0.00 | 47 | 997.8 |
| 20260505101721 | 44 | 261 | 9.0 | 18.0 | 0.00 | 0.20 | 0.00 | 51 | 997.3 |
| 20260505094737 | 44 | 245 | 9.0 | 19.0 | 0.00 | 0.20 | 0.00 | 51 | 997.0 |
| 20260505091737 | 43 | 264 | 6.0 | 12.0 | 0.00 | 0.20 | 0.00 | 52 | 996.7 |
| 20260505084737 | 42 | 271 | 5.0 | 18.0 | 0.00 | 0.20 | 0.00 | 58 | 996.5 |
| 20260505081736 | 41 | 296 | 6.0 | 15.0 | 0.00 | 0.20 | 0.00 | 63 | 996.1 |
| 20260505074735 | 40 | 266 | 6.0 | 21.0 | 0.00 | 0.20 | 0.00 | 64 | 996.0 |
| 20260505071732 | 40 | 289 | 9.0 | 17.0 | 0.00 | 0.20 | 0.00 | 65 | 995.6 |
| 20260505064728 | 39 | 268 | 6.0 | 15.0 | 0.00 | 0.20 | 0.00 | 69 | 995.4 |
| 20260505061730 | 39 | 266 | 7.0 | 14.0 | 0.00 | 0.20 | 0.00 | 71 | 995.1 |